Year,Month,Day,Hour,Minute,Value (Times are PST for temperature in C)
2018,02,18,08,31,1.50
2018,02,18,08,32,1.50
2018,02,18,08,33,1.40
2018,02,18,08,34,1.40
2018,02,18,08,35,1.50
2018,02,18,08,36,1.50
2018,02,18,08,37,1.50
2018,02,18,08,38,1.50
2018,02,18,08,39,1.40
2018,02,18,08,40,1.40
2018,02,18,08,41,1.40
2018,02,18,08,42,1.40
2018,02,18,08,43,1.40
2018,02,18,08,44,1.40
2018,02,18,08,45,1.40
2018,02,18,08,46,1.40
2018,02,18,08,47,1.40
2018,02,18,08,48,1.40
2018,02,18,08,49,1.50
2018,02,18,08,50,1.50
2018,02,18,08,51,1.50
2018,02,18,08,52,1.40
2018,02,18,08,53,1.40
2018,02,18,08,54,1.40
2018,02,18,08,55,1.40
2018,02,18,08,56,1.40
2018,02,18,08,57,1.40
2018,02,18,08,58,1.40
2018,02,18,08,59,1.40
2018,02,18,09,00,1.40
2018,02,18,09,01,1.40
2018,02,18,09,02,1.40
2018,02,18,09,03,1.40
2018,02,18,09,04,1.40
2018,02,18,09,05,1.40
2018,02,18,09,06,1.50
2018,02,18,09,07,1.50
2018,02,18,09,08,1.50
2018,02,18,09,09,1.50
2018,02,18,09,10,1.50
2018,02,18,09,11,1.40
2018,02,18,09,12,1.40
2018,02,18,09,13,1.40
2018,02,18,09,14,1.40
2018,02,18,09,15,1.40
2018,02,18,09,16,1.40
2018,02,18,09,17,1.40
2018,02,18,09,18,1.40
2018,02,18,09,19,1.40
2018,02,18,09,20,1.40
2018,02,18,09,21,1.50
2018,02,18,09,22,1.40
2018,02,18,09,23,1.40
2018,02,18,09,24,1.40
2018,02,18,09,25,1.40
2018,02,18,09,26,1.40
2018,02,18,09,27,1.50
2018,02,18,09,28,1.50
2018,02,18,09,29,1.50
2018,02,18,09,30,1.50
2018,02,18,09,31,1.50
2018,02,18,09,32,1.40
2018,02,18,09,33,1.40
2018,02,18,09,34,1.30
2018,02,18,09,35,1.30
2018,02,18,09,36,1.30
2018,02,18,09,37,1.20
2018,02,18,09,38,1.20
2018,02,18,09,39,1.10
2018,02,18,09,40,1.10
2018,02,18,09,41,1.10
2018,02,18,09,42,1.00
2018,02,18,09,43,1.10
2018,02,18,09,44,1.00
2018,02,18,09,45,1.00
2018,02,18,09,46,1.00
2018,02,18,09,47,1.00
2018,02,18,09,48,0.90
2018,02,18,09,49,0.90
2018,02,18,09,50,0.90
2018,02,18,09,51,0.90
2018,02,18,09,52,0.90
2018,02,18,09,53,0.90
2018,02,18,09,54,0.90
2018,02,18,09,55,0.90
2018,02,18,09,56,0.90
2018,02,18,09,57,0.80
2018,02,18,09,58,0.80
2018,02,18,09,59,0.80
2018,02,18,10,00,0.80
2018,02,18,10,01,0.80
2018,02,18,10,02,0.80
2018,02,18,10,03,0.80
2018,02,18,10,04,0.80
2018,02,18,10,05,0.80
2018,02,18,10,06,0.80
2018,02,18,10,07,0.80
2018,02,18,10,08,0.70
2018,02,18,10,09,0.70
2018,02,18,10,10,0.70
2018,02,18,10,11,0.80
2018,02,18,10,12,0.80
2018,02,18,10,13,0.80
2018,02,18,10,14,0.80
2018,02,18,10,15,0.80
2018,02,18,10,16,0.90
2018,02,18,10,17,1.00
2018,02,18,10,18,1.00
2018,02,18,10,19,1.10
2018,02,18,10,20,1.10
2018,02,18,10,21,1.10
2018,02,18,10,22,1.10
2018,02,18,10,23,1.10
2018,02,18,10,24,1.00
2018,02,18,10,25,1.00
2018,02,18,10,26,1.00
2018,02,18,10,27,0.90
2018,02,18,10,28,0.90
2018,02,18,10,29,0.90
2018,02,18,10,30,0.90
2018,02,18,10,31,0.90
2018,02,18,10,32,0.90
2018,02,18,10,33,0.90
2018,02,18,10,34,0.90
2018,02,18,10,35,0.90
2018,02,18,10,36,1.00
2018,02,18,10,37,1.00
2018,02,18,10,38,1.10
2018,02,18,10,39,1.10
2018,02,18,10,40,1.10
2018,02,18,10,41,1.10
2018,02,18,10,42,1.10
2018,02,18,10,43,1.10
2018,02,18,10,44,1.20
2018,02,18,10,45,1.20
2018,02,18,10,46,1.20
2018,02,18,10,47,1.30
2018,02,18,10,48,1.40
2018,02,18,10,49,1.40
2018,02,18,10,50,1.50
2018,02,18,10,51,1.60
2018,02,18,10,52,1.60
2018,02,18,10,53,1.60
2018,02,18,10,54,1.70
2018,02,18,10,55,1.70
2018,02,18,10,56,1.70
2018,02,18,10,57,1.60
2018,02,18,10,58,1.60
2018,02,18,10,59,1.60
2018,02,18,11,00,1.60
2018,02,18,11,01,1.60
2018,02,18,11,02,1.70
2018,02,18,11,03,1.70
2018,02,18,11,04,1.70
2018,02,18,11,05,1.70
2018,02,18,11,06,1.70
2018,02,18,11,07,1.70
2018,02,18,11,08,1.70
2018,02,18,11,09,1.70
2018,02,18,11,10,1.70
2018,02,18,11,11,1.70
2018,02,18,11,12,1.70
2018,02,18,11,13,1.70
2018,02,18,11,14,1.70
2018,02,18,11,15,1.70
2018,02,18,11,16,1.70
2018,02,18,11,17,1.70
2018,02,18,11,18,1.70
2018,02,18,11,19,1.60
2018,02,18,11,20,1.60
2018,02,18,11,21,1.60
2018,02,18,11,22,1.50
2018,02,18,11,23,1.40
2018,02,18,11,24,1.40
2018,02,18,11,25,1.40
2018,02,18,11,26,1.50
2018,02,18,11,27,1.50
2018,02,18,11,28,1.50
2018,02,18,11,29,1.60
2018,02,18,11,30,1.60
2018,02,18,11,31,1.60
2018,02,18,11,32,1.50
2018,02,18,11,33,1.50
2018,02,18,11,34,1.40
2018,02,18,11,35,1.30
2018,02,18,11,36,1.30
2018,02,18,11,37,1.30
2018,02,18,11,38,1.40
2018,02,18,11,39,1.40
2018,02,18,11,40,1.50
2018,02,18,11,41,1.50
2018,02,18,11,42,1.60
2018,02,18,11,43,1.60
2018,02,18,11,44,1.70
2018,02,18,11,45,1.70
2018,02,18,11,46,1.70
2018,02,18,11,47,1.80
2018,02,18,11,48,1.70
2018,02,18,11,49,1.70
2018,02,18,11,50,1.60
2018,02,18,11,51,1.60
2018,02,18,11,52,1.60
2018,02,18,11,53,1.60
2018,02,18,11,54,1.60
2018,02,18,11,55,1.70
2018,02,18,11,56,1.60
2018,02,18,11,57,1.60
2018,02,18,11,58,1.70
2018,02,18,11,59,1.70
2018,02,18,12,00,1.70
2018,02,18,12,01,1.80
2018,02,18,12,02,1.80
2018,02,18,12,03,1.70
2018,02,18,12,04,1.70
2018,02,18,12,05,1.60
2018,02,18,12,06,1.60
2018,02,18,12,07,1.60
2018,02,18,12,08,1.60
2018,02,18,12,09,1.60
2018,02,18,12,10,1.60
2018,02,18,12,11,1.60
2018,02,18,12,12,1.60
2018,02,18,12,13,1.60
2018,02,18,12,14,1.70
2018,02,18,12,15,1.70
2018,02,18,12,16,1.70
2018,02,18,12,17,1.70
2018,02,18,12,18,1.70
2018,02,18,12,19,1.70
2018,02,18,12,20,1.60
2018,02,18,12,21,1.50
2018,02,18,12,22,1.50
2018,02,18,12,23,1.60
2018,02,18,12,24,1.50
2018,02,18,12,25,1.50
2018,02,18,12,26,1.60
2018,02,18,12,27,1.60
2018,02,18,12,28,1.60
2018,02,18,12,29,1.60
2018,02,18,12,30,1.60
2018,02,18,12,31,1.70
2018,02,18,12,32,1.70
2018,02,18,12,33,1.70
2018,02,18,12,34,1.70
2018,02,18,12,35,1.70
2018,02,18,12,36,1.60
2018,02,18,12,37,1.60
2018,02,18,12,38,1.60
2018,02,18,12,39,1.60
2018,02,18,12,40,1.70
2018,02,18,12,41,1.60
2018,02,18,12,42,1.60
2018,02,18,12,43,1.60
2018,02,18,12,44,1.50
2018,02,18,12,45,1.40
2018,02,18,12,46,1.40
2018,02,18,12,47,1.40
2018,02,18,12,48,1.40
2018,02,18,12,49,1.50
2018,02,18,12,50,1.50
2018,02,18,12,51,1.60
2018,02,18,12,52,1.70
2018,02,18,12,53,1.70
2018,02,18,12,54,1.80
2018,02,18,12,55,1.80
2018,02,18,12,56,1.80
2018,02,18,12,57,1.80
2018,02,18,12,58,1.80
2018,02,18,12,59,1.80
2018,02,18,13,00,1.80
2018,02,18,13,01,1.80
2018,02,18,13,02,1.90
2018,02,18,13,03,1.80
2018,02,18,13,04,1.80
2018,02,18,13,05,1.80
2018,02,18,13,06,1.70
2018,02,18,13,07,1.70
2018,02,18,13,08,1.60
2018,02,18,13,09,1.70
2018,02,18,13,10,1.60
2018,02,18,13,11,1.60
2018,02,18,13,12,1.60
2018,02,18,13,13,1.60
2018,02,18,13,14,1.60
2018,02,18,13,15,1.60
2018,02,18,13,16,1.70
2018,02,18,13,17,1.60
2018,02,18,13,18,1.60
2018,02,18,13,19,1.60
2018,02,18,13,20,1.60
2018,02,18,13,21,1.60
2018,02,18,13,22,1.60
2018,02,18,13,23,1.70
2018,02,18,13,24,1.70
2018,02,18,13,25,1.70
2018,02,18,13,26,1.80
2018,02,18,13,27,1.80
2018,02,18,13,28,1.80
2018,02,18,13,29,1.70
2018,02,18,13,30,1.70
2018,02,18,13,31,1.70
2018,02,18,13,32,1.60
2018,02,18,13,33,1.50
2018,02,18,13,34,1.50
2018,02,18,13,35,1.40
2018,02,18,13,36,1.40
2018,02,18,13,37,1.30
2018,02,18,13,38,1.30
2018,02,18,13,39,1.30
2018,02,18,13,40,1.30
2018,02,18,13,41,1.30
2018,02,18,13,42,1.30
2018,02,18,13,43,1.30
2018,02,18,13,44,1.30
2018,02,18,13,45,1.30
2018,02,18,13,46,1.30
2018,02,18,13,47,1.20
2018,02,18,13,48,1.20
2018,02,18,13,49,1.20
2018,02,18,13,50,1.20
2018,02,18,13,51,1.20
2018,02,18,13,52,1.20
2018,02,18,13,53,1.20
2018,02,18,13,54,1.20
2018,02,18,13,55,1.30
2018,02,18,13,56,1.30
2018,02,18,13,57,1.30
2018,02,18,13,58,1.30
2018,02,18,13,59,1.30
2018,02,18,14,00,1.30
2018,02,18,14,01,1.30
2018,02,18,14,02,1.30
2018,02,18,14,03,1.30
2018,02,18,14,04,1.30
2018,02,18,14,05,1.30
2018,02,18,14,06,1.30
2018,02,18,14,07,1.40
2018,02,18,14,08,1.50
2018,02,18,14,09,1.60
2018,02,18,14,10,1.60
2018,02,18,14,11,1.60
2018,02,18,14,12,1.60
2018,02,18,14,13,1.60
2018,02,18,14,14,1.60
2018,02,18,14,15,1.70
2018,02,18,14,16,1.70
2018,02,18,14,17,1.70
2018,02,18,14,18,1.70
2018,02,18,14,19,1.70
2018,02,18,14,20,1.70
2018,02,18,14,21,1.70
2018,02,18,14,22,1.70
2018,02,18,14,23,1.70
2018,02,18,14,24,1.70
2018,02,18,14,25,1.70
2018,02,18,14,26,1.70
2018,02,18,14,27,1.70
2018,02,18,14,28,1.70
2018,02,18,14,29,1.60
2018,02,18,14,30,1.60
2018,02,18,14,31,1.60
2018,02,18,14,32,1.60
2018,02,18,14,33,1.60
2018,02,18,14,34,1.60
2018,02,18,14,35,1.60
2018,02,18,14,36,1.60
2018,02,18,14,37,1.60
2018,02,18,14,38,1.60
2018,02,18,14,39,1.60
2018,02,18,14,40,1.60
2018,02,18,14,41,1.50
2018,02,18,14,42,1.50
2018,02,18,14,43,1.50
2018,02,18,14,44,1.50
2018,02,18,14,45,1.60
2018,02,18,14,46,1.60
2018,02,18,14,47,1.60
2018,02,18,14,48,1.60
2018,02,18,14,49,1.60
2018,02,18,14,50,1.50
2018,02,18,14,51,1.50
2018,02,18,14,52,1.50
2018,02,18,14,53,1.40
2018,02,18,14,54,1.40
2018,02,18,14,55,1.40
2018,02,18,14,56,1.40
2018,02,18,14,57,1.50
2018,02,18,14,58,1.50
2018,02,18,14,59,1.50
2018,02,18,15,00,1.50
2018,02,18,15,01,1.50
2018,02,18,15,02,1.50
2018,02,18,15,03,1.50
2018,02,18,15,04,1.50
2018,02,18,15,05,1.60
2018,02,18,15,06,1.60
2018,02,18,15,07,1.60
2018,02,18,15,08,1.60
2018,02,18,15,09,1.60
2018,02,18,15,10,1.60
2018,02,18,15,11,1.60
2018,02,18,15,12,1.60
2018,02,18,15,13,1.60
2018,02,18,15,14,1.70
2018,02,18,15,15,1.70
2018,02,18,15,16,1.70
2018,02,18,15,17,1.70
2018,02,18,15,18,1.70
2018,02,18,15,19,1.80
2018,02,18,15,20,1.80
2018,02,18,15,21,1.80
2018,02,18,15,22,1.80
2018,02,18,15,23,1.80
2018,02,18,15,24,1.80
2018,02,18,15,25,1.80
2018,02,18,15,26,1.80
2018,02,18,15,27,1.80
2018,02,18,15,28,1.80
2018,02,18,15,29,1.70
2018,02,18,15,30,1.70
2018,02,18,15,31,1.70
2018,02,18,15,32,1.70
2018,02,18,15,33,1.70
2018,02,18,15,34,1.60
2018,02,18,15,35,1.60
2018,02,18,15,36,1.60
2018,02,18,15,37,1.50
2018,02,18,15,38,1.50
2018,02,18,15,39,1.50
2018,02,18,15,40,1.50
2018,02,18,15,41,1.40
2018,02,18,15,42,1.40
2018,02,18,15,43,1.40
2018,02,18,15,44,1.50
2018,02,18,15,45,1.50
2018,02,18,15,46,1.60
2018,02,18,15,47,1.60
2018,02,18,15,48,1.60
2018,02,18,15,49,1.60
2018,02,18,15,50,1.60
2018,02,18,15,51,1.60
2018,02,18,15,52,1.60
2018,02,18,15,53,1.60
2018,02,18,15,54,1.60
2018,02,18,15,55,1.60
2018,02,18,15,56,1.60
2018,02,18,15,57,1.60
2018,02,18,15,58,1.60
2018,02,18,15,59,1.60
2018,02,18,16,00,1.60
2018,02,18,16,01,1.60
2018,02,18,16,02,1.60
2018,02,18,16,03,1.60
2018,02,18,16,04,1.60
2018,02,18,16,05,1.60
2018,02,18,16,06,1.60
2018,02,18,16,07,1.50
2018,02,18,16,08,1.50
2018,02,18,16,09,1.40
2018,02,18,16,10,1.40
2018,02,18,16,11,1.40
2018,02,18,16,12,1.40
2018,02,18,16,13,1.40
2018,02,18,16,14,1.40
2018,02,18,16,15,1.40
2018,02,18,16,16,1.40
2018,02,18,16,17,1.40
2018,02,18,16,18,1.40
2018,02,18,16,19,1.40
2018,02,18,16,20,1.40
2018,02,18,16,21,1.40
2018,02,18,16,22,1.40
2018,02,18,16,23,1.40
2018,02,18,16,24,1.40
2018,02,18,16,25,1.40
2018,02,18,16,26,1.50
2018,02,18,16,27,1.50
2018,02,18,16,28,1.50
2018,02,18,16,29,1.50
2018,02,18,16,30,1.50
2018,02,18,16,31,1.50
2018,02,18,16,32,1.50
2018,02,18,16,33,1.50
2018,02,18,16,34,1.60
2018,02,18,16,35,1.60
2018,02,18,16,36,1.60
2018,02,18,16,37,1.60
2018,02,18,16,38,1.60
2018,02,18,16,39,1.50
2018,02,18,16,40,1.50
2018,02,18,16,41,1.40
2018,02,18,16,42,1.40
2018,02,18,16,43,1.40
2018,02,18,16,44,1.30
2018,02,18,16,45,1.30
2018,02,18,16,46,1.30
2018,02,18,16,47,1.30
2018,02,18,16,48,1.30
2018,02,18,16,49,1.30
2018,02,18,16,50,1.30
2018,02,18,16,51,1.30
2018,02,18,16,52,1.30
2018,02,18,16,53,1.30
2018,02,18,16,54,1.20
2018,02,18,16,55,1.20
2018,02,18,16,56,1.20
2018,02,18,16,57,1.20
2018,02,18,16,58,1.20
2018,02,18,16,59,1.20
2018,02,18,17,00,1.20
2018,02,18,17,01,1.10
2018,02,18,17,02,1.10
2018,02,18,17,03,1.10
2018,02,18,17,04,1.10
2018,02,18,17,05,1.10
2018,02,18,17,06,1.10
2018,02,18,17,07,1.10
2018,02,18,17,08,1.00
2018,02,18,17,09,1.00
2018,02,18,17,10,1.00
2018,02,18,17,11,1.00
2018,02,18,17,12,1.00
2018,02,18,17,13,1.10
2018,02,18,17,14,1.10
2018,02,18,17,15,1.10
2018,02,18,17,16,1.00
2018,02,18,17,17,1.00
2018,02,18,17,18,1.00
2018,02,18,17,19,1.00
2018,02,18,17,20,0.90
2018,02,18,17,21,0.90
2018,02,18,17,22,0.90
2018,02,18,17,23,0.90
2018,02,18,17,24,0.90
2018,02,18,17,25,0.90
2018,02,18,17,26,0.90
2018,02,18,17,27,0.90
2018,02,18,17,28,0.90
2018,02,18,17,29,0.80
2018,02,18,17,30,0.80
2018,02,18,17,31,0.90
2018,02,18,17,32,0.90
2018,02,18,17,33,0.90
2018,02,18,17,34,0.90
2018,02,18,17,35,0.80
2018,02,18,17,36,0.80
2018,02,18,17,37,0.80
2018,02,18,17,38,0.80
2018,02,18,17,39,0.80
2018,02,18,17,40,0.90
2018,02,18,17,41,0.90
2018,02,18,17,42,0.90
2018,02,18,17,43,0.90
2018,02,18,17,44,0.90
2018,02,18,17,45,0.90
2018,02,18,17,46,0.90
2018,02,18,17,47,0.90
2018,02,18,17,48,0.90
2018,02,18,17,49,0.90
2018,02,18,17,50,0.90
2018,02,18,17,51,0.90
2018,02,18,17,52,0.90
2018,02,18,17,53,0.90
2018,02,18,17,54,0.90
2018,02,18,17,55,0.80
2018,02,18,17,56,0.80
2018,02,18,17,57,0.80
2018,02,18,17,58,0.80
2018,02,18,17,59,0.70
2018,02,18,18,00,0.70
2018,02,18,18,01,0.70
2018,02,18,18,02,0.70
2018,02,18,18,03,0.70
2018,02,18,18,04,0.70
2018,02,18,18,05,0.70
2018,02,18,18,06,0.70
2018,02,18,18,07,0.70
2018,02,18,18,08,0.70
2018,02,18,18,09,0.70
2018,02,18,18,10,0.70
2018,02,18,18,11,0.70
2018,02,18,18,12,0.70
2018,02,18,18,13,0.70
2018,02,18,18,14,0.70
2018,02,18,18,15,0.70
2018,02,18,18,16,0.70
